Flag for U.S.A. Weather past 2 weeks in Kodiak, Alaska, U.S.A.

Now
45 °F

Clear.


Feels Like: 41 °F
Forecast: 43 / 53 °F
Wind: 8 mph from West

Location: Kodiak Weather Reporting Station

Current Time: Sep 30, 2014 at 1:58:05 AM

Latest Report: Sep 30, 2014 at 12:53 AM


Visibility: 10 mi

Pressure: 30.10 "Hg

Humidity: 45%

Dew point: 25 °F

Location of KodiakLocation

Historic Weather in Kodiak — Graph

°F

Kodiak temperature yesterday

Maximum temperature yesterday: 53 °F (at 12:53 AM)
Minimum temperature yesterday: 47 °F (at 9:53 PM)
Average temperature yesterday: 51 °F

Past Weeks' High & Low Weather Summary

 TemperatureHumidityPressure
High61 °F (Sep 28, 3:53 PM)97% (Sep 15, 12:53 AM)30.10 "Hg (Sep 15, 12:53 AM)
Low36 °F (Sep 23, 5:53 AM)27% (Sep 28, 5:53 PM)28.99 "Hg (Sep 18, 7:53 AM)
Average50 °F72%29.59 "Hg
* Reported Sep 15 12:53 AM — Sep 30 12:53 AM, Kodiak, Weather by CustomWeather, © 2014

Note: Actual official high and low records may vary slightly from our data, if they occured in-between our weather recording intervals... More about our weather records

Advertising

Kodiak weather history for previous 24 hours

 ConditionsComfort  
Time TempWeatherWind HumidityBarometerVisibility
12:53 AM
Sep 30
45 °FClear.8 mph45%30.10 "Hg10 mi
11:53 PM
Sep 29
47 °FClear.9 mph42%30.10 "Hg10 mi
10:53 PM47 °FClear.9 mph46%30.07 "Hg10 mi
9:53 PM47 °FClear.9 mph48%30.05 "Hg10 mi
8:53 PM48 °FPassing clouds.15 mph44%30.03 "Hg10 mi
7:53 PM50 °FSunny.16 mph39%30.01 "Hg10 mi
6:53 PM50 °FPassing clouds.20 mph39%29.98 "Hg10 mi
5:53 PM51 °FSunny.21 mph36%29.97 "Hg10 mi
4:53 PM53 °FPassing clouds.17 mph35%29.96 "Hg10 mi
3:53 PM52 °FPassing clouds.23 mph37%29.95 "Hg10 mi
2:53 PM53 °FScattered clouds.16 mph39%29.94 "Hg10 mi
1:53 PM53 °FScattered clouds.21 mph39%29.93 "Hg10 mi
12:53 PM52 °FScattered clouds.17 mph45%29.90 "Hg10 mi
11:53 AM52 °FPartly sunny.17 mph55%29.90 "Hg10 mi
10:53 AM52 °FScattered clouds.15 mph55%29.88 "Hg10 mi
9:53 AM52 °FScattered clouds.14 mph59%29.88 "Hg10 mi
8:53 AM50 °FPassing clouds.5 mph61%29.87 "Hg10 mi
7:53 AM49 °FPassing clouds.5 mph57%29.86 "Hg8 mi
6:53 AM49 °FClear.5 mph57%29.84 "Hg10 mi
5:53 AM50 °FClear.8 mph54%29.83 "Hg10 mi
4:53 AM51 °FClear.10 mph50%29.81 "Hg10 mi
3:53 AM52 °FClear.24 mph49%29.78 "Hg10 mi
2:53 AM53 °FClear.28 mph45%29.75 "Hg10 mi
1:53 AM52 °FClear.25 mph49%29.76 "Hg10 mi
Weather by CustomWeather, © 2014

See weather overviewHow to use our weather pages